GFSFLT1_925_rhum_021.txt.gz
RH
77 79 83 78 75 73 74 75 72 73 68 67 73 74 73 72 68 60 54 50 48 46 46 47 49 50 48 45 44 45 44 45
75 79 79 80 76 73 68 67 72 67 65 67 67 60 53 51 50 48 46 46 48 45 44 48 46 42 39 40 45 46 46 47
71 73 73 76 74 69 72 70 71 65 60 61 54 47 48 48 49 46 43 43 44 43 44 40 36 32 31 36 41 46 55 55
70 70 72 73 73 69 67 70 66 62 59 55 49 49 53 53 51 48 47 46 45 42 34 28 25 23 23 26 34 52 56 55
66 68 71 72 72 69 65 68 67 64 60 52 48 51 56 53 51 51 48 41 36 30 26 24 24 21 23 36 43 50 60 61
62 67 67 70 70 74 72 74 70 65 60 54 49 53 52 50 53 47 37 31 28 26 26 27 24 24 42 56 60 61 60 59
52 63 65 70 73 78 79 78 71 65 62 58 50 53 55 52 51 42 29 28 28 30 31 30 35 44 53 59 58 49 49 53
65 73 70 72 78 81 83 80 78 64 69 68 57 54 54 52 46 31 29 31 32 33 31 31 34 42 58 61 56 59 54 53
66 70 72 76 79 83 83 78 78 74 74 70 63 58 56 50 38 29 28 30 31 31 35 40 43 54 64 64 64 66 60 62
70 72 74 77 80 81 78 74 75 72 68 71 70 60 53 44 33 28 29 29 28 36 39 39 41 43 44 50 59 68 62 62
81 78 75 78 80 79 75 72 68 67 59 57 58 52 46 36 30 29 26 29 35 38 40 37 39 43 46 49 48 48 48 47
81 77 79 80 78 74 70 67 60 59 54 54 55 48 37 32 32 29 30 34 36 34 35 35 38 44 47 49 51 50 48 52
76 74 77 73 68 68 68 66 60 56 52 52 51 45 36 36 33 31 34 35 36 37 37 40 39 40 47 50 51 48 47 49
78 80 76 70 65 64 64 66 61 59 56 54 48 40 36 35 36 37 38 37 40 41 42 43 45 42 46 49 51 48 49 49
72 75 74 67 64 62 63 66 64 68 69 60 50 39 35 37 39 36 39 40 42 42 44 46 50 41 43 45 48 49 50 50
62 66 70 66 66 64 62 64 65 64 65 64 51 38 40 42 38 40 40 43 43 45 47 58 47 47 45 43 45 50 52 54
44 51 55 53 56 61 65 67 64 62 59 54 51 48 50 45 44 44 46 48 50 54 78 66 56 52 50 50 47 51 57 57
47 54 57 52 49 54 60 62 62 59 55 56 56 57 55 52 52 56 60 65 78 79 69 66 54 48 40 42 51 54 62 58
54 55 51 54 56 61 66 68 65 64 64 61 64 62 60 64 65 71 79 90 87 77 68 58 54 49 47 47 50 57 63 59

GFSFLT1_925_rhum_024.txt.gz
RH
77 78 75 76 76 70 69 76 74 73 73 76 74 83 84 80 79 78 79 68 55 46 43 46 50 49 49 46 42 44 46 48
76 76 73 81 84 79 75 77 75 79 80 86 90 86 86 83 82 76 67 57 50 47 48 50 50 46 43 44 44 46 47 49
80 79 80 83 80 77 73 75 76 79 76 77 82 76 70 64 62 56 55 54 51 50 49 46 42 35 32 33 36 46 55 55
80 83 83 82 81 78 73 71 73 76 73 72 68 66 59 57 54 51 56 54 50 48 41 30 26 23 22 24 31 42 52 54
74 80 80 82 82 79 77 71 73 73 68 65 60 56 58 53 50 49 50 51 46 37 30 24 22 21 25 33 43 46 57 59
70 76 74 77 76 79 77 74 75 73 69 64 59 51 51 51 53 52 50 42 35 30 26 25 20 19 22 39 51 56 55 53
63 68 71 77 74 74 79 78 76 77 71 67 58 52 52 53 56 52 41 37 32 30 28 22 18 33 44 52 54 51 52 48
67 78 76 77 74 73 77 80 82 81 75 73 66 55 52 50 55 52 38 35 33 31 28 25 37 44 46 56 54 57 56 51
60 64 72 74 78 79 82 85 85 81 82 80 72 62 55 56 55 52 43 34 31 30 24 24 44 37 26 46 60 61 61 60
63 60 69 75 79 80 78 84 84 81 83 86 78 72 64 60 60 54 39 32 30 29 28 41 28 27 33 42 51 64 69 64
73 74 73 75 77 79 83 82 78 72 82 86 79 79 76 68 64 52 34 31 34 31 35 28 32 40 39 43 47 54 57 49
84 81 75 74 76 76 75 80 83 81 80 82 84 81 78 76 66 42 31 32 30 30 28 32 39 40 43 48 50 50 50 48
86 87 83 81 79 86 81 81 79 78 76 79 80 77 76 65 47 36 33 33 30 33 32 37 39 42 42 48 51 53 50 49
84 87 90 88 84 81 80 78 75 73 75 78 78 70 62 51 42 36 35 32 36 35 38 41 42 46 53 45 51 52 51 50
82 86 85 79 74 74 74 76 76 75 75 72 74 70 58 45 42 40 35 36 37 40 42 44 51 64 54 43 43 44 46 49
66 74 82 77 75 71 69 70 73 73 73 73 73 69 60 52 44 41 39 40 41 42 45 50 78 83 56 50 48 46 48 49
62 61 58 60 67 72 71 68 68 70 71 71 67 63 59 56 50 48 44 45 47 50 61 83 79 73 56 52 50 56 57 54
58 60 62 62 66 63 66 75 75 74 75 75 73 69 66 59 53 51 51 56 66 84 85 88 80 67 55 49 48 50 49 56
63 63 64 69 70 71 72 73 75 75 70 69 70 69 66 64 60 64 80 87 86 92 92 88 71 58 56 55 51 49 53 58

GFSFLT1_925_rhum_030.txt.gz
RH
59 60 62 60 62 67 68 76 79 85 78 67 54 66 74 85 84 76 78 67 66 64 63 68 58 52 53 50 45 40 37 35
49 54 59 61 62 63 65 68 73 78 71 62 58 68 75 84 84 81 78 68 68 66 63 65 55 50 49 51 43 44 40 42
44 49 52 56 60 65 65 66 70 72 64 55 56 62 68 82 89 86 81 74 68 68 63 59 54 54 54 48 42 38 38 46
40 47 50 54 54 59 59 62 65 69 62 57 69 74 82 88 89 89 85 78 69 66 65 57 58 51 46 45 43 39 41 49
35 45 50 52 54 55 58 57 60 66 68 60 68 63 66 76 90 84 75 78 71 63 63 60 57 42 38 39 41 47 50 53
35 35 42 51 53 56 62 62 63 65 71 67 67 66 62 67 80 68 72 75 70 60 59 57 50 42 41 40 50 62 63 50
31 34 39 42 51 56 60 65 63 64 69 76 68 65 66 75 69 70 72 74 66 61 56 55 50 43 49 60 52 66 59 56
33 34 36 41 46 55 60 64 60 64 68 74 76 75 74 78 75 74 70 66 63 61 58 56 50 44 56 52 57 69 63 55
30 32 34 38 46 53 61 62 62 62 69 75 76 80 83 83 81 73 68 67 64 64 60 64 56 43 48 59 75 71 63 54
25 27 33 39 45 53 61 61 64 63 68 76 78 83 84 86 87 74 71 71 69 62 62 68 62 52 50 74 72 65 62 63
26 28 30 35 42 49 59 62 64 63 69 77 79 83 84 94 93 84 79 73 75 75 74 59 63 49 61 79 65 64 60 65
32 33 34 36 42 49 57 65 67 65 64 74 80 86 94 98 98 98 92 83 76 74 64 65 80 52 79 68 64 52 66 65
34 36 41 43 47 50 53 57 58 59 64 71 78 98 100 99 98 98 94 86 83 72 68 84 51 65 60 62 52 60 67 76
34 43 44 46 51 55 57 64 62 63 72 78 84 90 97 98 99 99 96 93 84 80 86 62 59 57 54 53 65 72 87 78
33 42 48 52 56 61 63 68 71 72 74 76 78 86 87 90 94 96 93 93 91 83 68 58 57 55 52 67 83 85 90 68
44 44 49 54 60 63 64 72 75 74 71 70 74 81 83 82 82 81 80 82 78 70 60 54 64 58 86 90 98 94 84 67
44 43 42 45 49 52 62 66 70 69 69 69 72 77 74 74 74 76 80 75 71 58 56 57 75 97 91 91 94 99 80 70
42 45 48 50 55 56 58 64 67 68 69 70 72 72 72 75 73 71 72 63 60 58 78 85 90 77 79 98 98 96 98 85
43 45 49 52 54 58 58 60 63 64 66 68 70 71 70 70 71 75 65 63 64 77 90 82 83 89 98 99 100 99 95 68

GFSFLT1_925_rhum_033.txt.gz
RH
43 46 53 57 65 67 67 71 71 70 76 71 54 48 53 51 69 71 73 65 66 68 57 61 62 53 50 46 44 38 35 34
45 46 46 51 56 58 57 59 60 66 73 59 46 45 51 61 76 74 68 63 68 68 59 67 63 52 47 51 45 43 36 38
36 46 45 47 51 54 54 54 57 58 54 48 42 42 45 54 74 70 68 71 65 67 62 65 62 50 51 53 42 38 35 42
32 37 43 47 48 48 50 52 53 55 50 47 42 41 47 51 65 74 76 75 70 66 66 62 59 50 55 53 47 39 36 45
27 32 37 42 44 49 50 48 48 50 50 44 41 46 46 52 60 67 74 82 77 64 64 66 60 55 49 52 45 40 45 43
25 29 33 36 40 44 49 47 47 48 53 51 45 50 51 51 58 72 82 72 76 69 64 67 63 59 47 45 40 48 53 62
21 23 29 34 37 42 46 46 44 46 50 56 54 53 55 48 58 68 69 70 74 72 63 65 66 56 46 47 50 61 67 65
20 21 24 28 35 42 45 47 46 46 49 54 60 59 57 57 57 69 65 70 75 74 73 69 70 60 53 58 56 53 66 72
21 20 21 24 29 38 46 46 47 46 52 54 58 66 65 66 69 72 75 76 72 83 80 81 74 61 63 71 51 62 73 83
20 20 22 24 26 33 43 46 46 48 48 56 62 69 74 72 80 80 86 77 79 85 83 78 64 66 76 60 74 72 84 70
18 18 21 23 26 30 40 46 46 46 51 59 67 69 73 77 82 94 90 87 87 78 76 83 72 78 58 78 80 84 70 60
24 22 22 23 27 32 38 46 50 48 53 58 67 72 74 80 91 96 96 93 84 73 79 81 77 72 73 75 76 71 62 62
23 27 28 28 30 33 37 45 50 50 55 58 67 77 82 89 97 99 98 94 90 84 75 82 85 80 77 85 81 65 56 70
23 30 33 34 37 39 41 47 49 50 52 54 64 93 95 95 96 100 98 97 91 83 81 88 87 81 80 82 71 55 86 81
19 29 34 36 41 46 48 53 52 53 57 62 65 77 89 92 93 98 99 97 93 91 90 85 86 78 72 61 58 89 83 74
26 29 36 43 49 51 53 63 64 63 62 64 70 77 77 78 84 88 92 94 92 93 90 84 69 66 62 70 87 87 73 93
34 37 41 46 49 52 59 62 62 61 59 60 66 68 68 71 72 73 78 80 79 78 73 70 65 66 78 82 80 84 96 99
36 36 38 41 44 47 52 55 56 56 58 61 64 64 68 70 68 68 66 68 72 73 73 67 66 84 79 84 84 87 96 98
37 37 40 42 44 47 48 50 53 54 57 61 63 64 64 64 63 66 71 73 72 74 73 70 71 76 85 82 84 97 99 98

GFSFLT1_925_rhum_036.txt.gz
RH
52 60 66 72 65 58 56 58 55 56 50 44 47 52 52 51 48 61 62 67 69 67 63 58 57 56 52 47 45 42 38 36
52 55 67 68 64 62 60 60 63 62 64 66 68 51 53 54 55 66 70 67 69 67 66 60 60 58 52 50 47 40 38 36
47 52 56 69 68 68 74 75 70 66 72 75 65 53 49 52 59 68 66 78 66 67 68 63 65 61 52 50 51 44 40 37
44 48 52 56 66 66 65 69 73 72 73 62 62 47 46 48 62 60 66 72 67 67 67 66 66 62 54 53 51 43 42 42
38 43 48 52 56 59 56 54 56 58 57 54 51 45 44 48 65 70 66 68 74 70 67 67 64 62 58 56 53 46 40 46
31 37 42 47 50 55 54 51 53 54 56 56 50 44 42 43 51 60 68 76 78 80 70 65 66 63 59 56 53 49 43 52
27 30 34 41 46 50 53 50 50 49 51 51 52 49 46 50 53 58 68 68 71 80 74 67 68 65 65 66 74 55 60 60
27 28 31 34 40 47 51 53 51 49 49 53 52 53 50 52 53 60 74 78 77 79 75 66 67 71 79 84 76 62 64 67
26 24 29 32 36 43 47 49 50 47 48 51 57 54 56 62 58 60 68 76 74 72 73 70 69 83 88 83 59 63 58 67
24 23 22 29 35 40 46 46 47 46 46 49 51 60 62 64 62 68 77 77 73 71 72 74 96 93 85 64 62 67 66 85
20 23 23 24 28 38 45 47 45 46 46 50 55 59 63 64 68 73 88 86 78 76 75 94 92 86 78 63 69 70 84 81
22 22 20 21 24 27 42 47 46 45 46 50 58 60 63 65 80 86 94 91 89 87 87 85 82 81 75 74 74 74 86 81
23 26 24 24 24 26 39 44 45 46 47 59 60 62 72 77 84 88 89 93 92 87 78 79 82 85 88 81 69 85 87 82
24 29 31 29 29 30 32 39 44 47 48 56 58 72 84 90 94 96 96 96 95 93 84 83 85 94 92 74 81 80 90 86
19 29 34 34 36 38 40 45 47 49 50 62 82 95 95 90 94 99 99 100 99 95 90 85 88 91 88 83 88 90 87 76
20 30 36 39 44 46 50 54 59 61 63 72 83 83 84 89 94 94 90 91 93 93 90 89 90 87 88 86 86 78 81 70
23 26 38 43 48 52 61 64 63 63 63 70 72 73 74 81 90 95 93 91 91 90 89 88 88 82 76 68 72 72 68 89
32 38 45 48 53 59 61 61 59 59 62 66 66 66 71 73 73 74 75 77 77 78 77 75 73 69 69 67 72 83 89 86
38 40 42 46 49 51 54 54 57 58 59 62 64 67 66 64 64 68 72 73 74 74 75 75 76 74 72 74 81 86 90 96

GFSFLT1_925_rhum_039.txt.gz
RH
84 91 90 90 94 94 85 84 82 81 84 74 64 63 53 47 52 49 49 57 64 61 59 62 56 54 54 52 46 47 42 37
76 83 84 82 86 90 89 89 82 80 70 70 68 71 64 51 52 58 60 62 61 67 61 67 58 56 55 52 48 45 40 40
70 74 78 75 70 71 78 74 70 73 64 59 57 54 57 48 48 50 58 64 63 66 64 68 60 59 56 54 50 45 42 38
64 73 75 69 65 60 58 60 65 60 59 53 50 62 67 51 52 50 58 66 68 65 70 68 63 61 58 58 52 48 44 42
58 67 74 69 68 66 65 65 74 68 61 69 75 77 66 54 52 53 61 63 60 61 74 69 69 64 62 61 52 49 45 46
54 58 68 71 67 70 74 73 72 68 68 72 76 70 64 55 49 49 56 61 64 70 77 71 70 67 64 62 56 51 49 58
51 51 56 65 70 68 70 71 73 68 69 70 72 66 60 48 45 62 60 62 69 71 76 74 71 70 67 61 64 69 64 76
46 48 50 55 61 67 66 64 62 64 65 67 68 61 58 46 42 46 64 70 67 61 76 77 73 68 68 63 69 70 80 73
36 43 46 49 54 58 62 62 59 58 60 62 60 62 58 50 47 52 58 60 72 76 74 77 70 70 71 69 77 83 80 68
33 35 39 42 48 52 57 59 58 55 58 58 61 58 58 58 51 55 53 60 66 83 80 84 73 70 72 77 88 86 73 68
33 33 34 36 40 46 52 53 56 55 54 54 56 58 57 55 62 58 56 60 72 83 91 81 76 77 82 92 90 85 72 67
34 41 31 33 34 39 47 52 55 58 56 55 56 57 58 59 62 71 74 81 92 96 86 84 83 87 91 92 83 75 73 73
29 32 29 30 33 37 42 53 67 44 40 62 56 75 86 94 91 86 87 97 94 86 84 87 88 91 87 86 84 81 73 81
36 35 34 33 34 39 44 59 66 64 65 63 74 80 68 82 88 89 100 94 92 92 88 86 86 85 86 85 85 82 77 85
39 42 41 37 39 47 56 59 68 74 73 82 94 85 91 100 100 99 99 98 96 96 90 83 82 82 87 91 92 83 87 94
37 46 49 52 54 59 64 62 68 75 78 85 95 96 96 99 100 100 100 100 100 99 97 89 88 89 93 93 87 90 94 88
27 47 54 58 60 67 67 65 74 76 87 88 85 85 91 95 94 93 88 87 89 93 93 93 95 95 93 90 87 90 92 79
36 53 58 62 69 68 68 66 70 74 79 82 88 90 92 94 96 92 88 86 87 86 88 91 90 89 87 86 84 84 81 85
58 65 68 69 68 65 64 62 65 68 69 72 74 75 76 77 80 83 82 81 76 76 78 79 75 75 76 79 80 78 79 84

GFSFLT1_925_rhum_045.txt.gz
RH
88 93 100 100 100 100 98 96 93 95 85 77 69 73 69 68 62 64 64 63 62 65 62 64 57 56 58 57 55 51 47 43
93 84 94 100 100 100 100 100 96 95 90 77 76 77 60 57 55 58 61 63 65 68 66 63 62 62 59 58 59 54 46 44
97 97 94 100 100 98 97 98 97 88 74 71 76 68 57 50 44 36 46 49 52 60 62 61 62 63 62 59 56 50 51 49
96 95 97 99 100 99 96 94 95 89 84 84 78 75 62 49 45 44 46 43 43 53 59 61 63 64 64 58 53 50 52 52
89 94 98 100 97 95 93 91 90 88 84 80 78 71 65 60 49 42 39 41 42 53 63 64 68 69 66 62 56 56 54 48
85 87 92 94 94 93 94 92 86 79 79 79 77 73 68 58 54 52 51 45 43 52 57 68 70 72 70 68 64 63 61 52
71 76 83 90 90 91 89 92 92 86 82 77 76 74 70 68 63 61 58 49 46 51 52 56 61 69 71 71 72 68 68 62
72 75 80 84 86 85 85 86 87 84 83 80 76 71 68 65 66 64 63 57 57 52 52 55 59 66 79 77 78 80 75 73
70 71 73 77 80 77 77 76 77 77 78 77 76 75 69 66 64 70 66 60 58 54 55 54 54 71 88 92 94 95 85 80
65 66 70 73 72 71 69 67 67 68 70 73 70 70 70 68 68 70 72 65 68 68 70 72 78 80 72 88 93 82 96 85
60 62 64 71 70 66 66 62 61 60 62 64 75 75 70 67 71 77 78 76 72 68 75 92 89 83 96 100 100 97 99 88
51 58 58 64 69 67 66 65 62 62 63 67 70 73 74 76 76 77 81 81 78 78 89 91 87 96 100 100 100 100 98 89
43 46 53 57 62 68 71 69 67 67 71 73 74 74 74 76 73 80 84 83 81 98 93 93 70 90 96 100 100 97 90 88
43 47 49 52 56 60 66 73 73 71 73 77 81 82 82 79 72 90 90 92 97 95 80 95 93 69 99 100 100 98 96 99
42 41 46 44 49 54 57 64 70 73 76 78 81 84 83 82 84 93 96 98 100 95 78 76 97 95 100 100 98 99 100 100
41 48 49 51 50 50 49 51 59 68 74 79 80 83 86 89 97 90 100 100 100 100 97 90 97 99 100 100 100 98 97 95
31 44 50 56 56 56 58 53 50 57 70 79 84 90 93 94 98 100 100 100 100 100 100 100 100 100 98 99 94 91 92 93
28 42 44 52 61 57 62 63 62 64 76 84 84 82 90 99 100 100 100 100 100 100 100 100 100 99 98 94 94 94 95 93
30 28 55 56 68 74 78 86 87 88 96 100 100 100 100 100 100 100 100 100 100 100 100 100 98 98 99 100 98 93 92 99

GFSFLT1_925_rhum_048.txt.gz
RH
83 94 100 100 99 100 100 100 96 98 100 99 86 75 69 53 65 59 55 50 48 47 49 48 46 47 51 58 52 48 46 42
86 85 98 100 100 100 100 100 100 93 93 93 80 77 75 54 55 68 54 51 53 52 60 60 51 53 56 58 60 54 52 50
94 83 97 100 99 100 100 99 99 100 95 95 84 78 75 65 72 78 63 65 64 67 60 69 73 70 64 63 61 60 58 52
92 87 90 99 100 100 99 98 96 98 93 93 80 71 70 65 64 59 63 62 58 60 61 65 66 67 65 63 63 64 61 53
96 88 87 93 98 97 97 98 94 87 88 83 77 74 70 66 60 53 51 51 49 47 51 57 61 64 68 65 65 63 59 53
93 96 93 96 100 100 94 96 97 93 86 79 75 74 70 63 63 52 46 44 44 42 45 49 56 66 67 69 70 68 59 54
80 87 96 100 100 100 100 96 94 93 87 78 70 74 72 70 66 59 48 43 42 39 41 44 50 58 70 72 74 76 74 65
80 91 94 99 100 99 100 99 97 93 90 86 83 81 78 75 71 67 64 54 44 43 50 46 46 54 55 68 74 86 86 82
74 82 84 91 95 95 96 98 96 93 91 87 83 82 79 74 69 69 63 61 56 53 56 52 48 51 60 67 82 94 95 94
71 74 79 84 88 89 89 90 91 89 88 88 86 83 80 78 75 71 67 67 68 64 58 48 46 57 72 83 90 88 94 96
70 72 73 78 81 80 82 79 77 81 82 81 82 82 81 79 76 72 68 64 64 60 51 50 67 74 80 90 89 79 86 90
65 69 68 71 74 77 78 77 76 75 77 78 78 80 77 75 73 70 65 57 52 55 62 71 74 78 92 98 99 100 99 100
56 63 65 69 73 74 75 76 71 69 69 72 74 72 79 80 78 67 46 72 82 68 73 73 74 96 99 100 100 92 94 100
56 62 67 67 70 73 72 71 71 68 68 70 73 74 76 80 81 67 72 71 68 71 86 81 90 97 99 95 82 86 92 100
48 58 58 60 63 68 72 73 71 70 70 73 75 78 78 76 75 72 70 78 81 86 96 100 100 100 95 96 91 92 100 100
40 48 53 54 59 63 66 69 75 76 75 75 77 80 83 80 77 79 86 92 93 97 100 100 100 100 100 99 91 100 100 100
29 42 50 54 53 58 62 64 68 76 80 80 79 82 86 89 89 90 94 99 99 100 100 100 100 100 99 100 100 100 100 100
29 34 42 50 53 51 56 58 61 68 77 81 82 85 89 92 95 97 99 100 100 100 100 100 100 100 100 100 100 100 100 99
32 31 38 38 41 50 53 60 60 62 74 82 85 89 97 99 99 100 100 100 100 100 100 100 100 100 100 100 100 99 99 100

GFSFLT1_925_rhum_051.txt.gz
RH
75 90 94 100 100 100 100 100 100 100 98 90 98 97 88 78 62 76 66 50 47 44 44 42 44 53 55 50 46 39 38 38
76 83 96 98 100 100 100 100 100 100 100 100 97 97 92 86 73 84 68 56 51 49 46 46 45 48 55 57 53 47 45 41
77 82 91 99 99 100 100 100 100 100 99 100 96 94 84 85 86 73 67 56 54 53 52 51 49 52 51 57 60 63 63 52
84 81 85 91 99 100 100 100 99 100 99 98 98 87 81 81 70 64 61 57 55 52 55 57 64 57 56 59 63 62 64 61
77 79 82 85 89 95 97 100 100 100 97 98 96 82 77 67 60 58 64 72 68 63 65 59 65 65 68 70 69 67 69 66
73 75 77 83 86 91 94 97 99 100 96 92 90 81 70 70 59 48 47 66 62 62 59 58 57 56 66 69 69 71 68 72
64 73 78 81 86 94 94 92 95 94 98 90 88 78 68 65 64 57 61 57 55 56 54 51 46 47 57 69 71 78 77 74
62 73 80 85 93 97 97 94 90 92 90 91 87 82 78 72 70 70 66 68 58 50 50 50 48 50 47 54 64 72 81 84
59 66 75 85 96 98 99 98 91 90 91 91 88 84 80 76 73 68 69 73 72 62 53 51 50 48 51 54 60 66 80 86
54 62 71 78 85 90 96 90 88 89 90 91 89 85 81 78 74 72 71 66 65 63 58 58 56 55 55 57 56 69 78 80
53 60 68 74 78 81 89 86 83 84 88 90 89 88 86 83 83 80 74 71 66 60 57 54 58 59 55 62 70 78 85 89
51 56 63 69 74 77 84 84 82 84 88 89 88 89 88 87 83 74 67 68 65 54 53 65 69 70 62 71 76 74 88 98
40 52 60 66 71 73 77 80 79 82 84 86 89 89 89 88 86 84 82 78 70 67 80 79 81 82 77 67 74 95 100 93
37 50 58 60 65 70 72 77 77 76 78 83 86 86 88 86 84 81 81 74 78 82 83 84 78 76 75 78 94 96 99 86
25 42 52 55 61 66 69 72 75 74 74 77 79 82 81 82 83 82 83 79 78 80 81 85 76 77 95 100 100 100 100 93
28 32 41 50 57 64 67 68 74 74 71 72 72 75 77 77 80 84 85 82 80 81 83 90 89 93 99 96 100 100 100 100
26 30 34 48 53 58 63 68 74 74 72 72 70 74 76 79 78 78 81 83 84 90 89 85 95 98 96 97 100 100 100 100
29 28 31 38 43 50 55 62 70 78 74 72 73 76 78 81 82 81 82 84 88 96 99 100 100 100 99 99 100 100 100 100
30 29 29 30 37 45 46 53 65 74 76 77 78 80 80 83 88 89 92 94 97 100 100 100 100 99 100 100 100 100 100 100

GFSFLT1_925_rhum_057.txt.gz
RH
35 43 46 61 87 99 97 100 99 99 100 100 100 100 100 98 88 80 71 64 59 48 46 47 44 42 42 44 44 42 40 38
34 47 50 60 74 97 99 98 99 99 100 100 100 100 100 89 80 71 67 62 60 49 50 53 53 46 44 45 46 43 40 38
34 46 54 60 70 91 100 99 98 99 99 97 97 98 100 92 85 81 64 65 64 50 53 57 58 51 50 53 50 47 39 38
35 42 53 61 67 83 100 100 99 98 98 98 97 96 97 97 88 81 80 82 66 60 56 58 57 53 57 63 62 55 48 47
30 38 47 58 61 72 94 99 99 98 98 99 99 97 94 88 85 75 61 78 77 57 60 58 57 55 54 66 66 64 55 50
28 34 41 50 54 71 79 100 100 99 99 99 100 91 86 81 82 74 69 72 70 71 60 61 61 62 59 58 64 70 65 57
25 30 38 44 50 60 80 92 100 100 98 98 97 96 92 87 85 88 73 73 77 75 61 62 68 70 69 66 66 70 73 64
25 30 34 40 48 54 69 78 90 100 100 100 96 89 94 87 84 82 78 81 81 79 73 64 71 76 77 73 76 77 78 74
24 28 33 37 46 52 57 67 71 93 99 99 93 87 89 80 81 77 76 78 80 78 73 70 73 77 79 75 70 74 67 72
22 24 30 36 42 50 54 54 60 71 96 98 96 92 85 78 73 72 71 71 68 73 78 77 75 74 76 75 76 74 70 71
18 22 26 34 39 45 54 51 51 57 69 87 93 91 84 78 71 67 68 65 62 63 73 73 72 72 73 72 71 70 69 69
16 18 21 29 36 41 52 55 47 47 57 69 80 84 84 82 78 72 69 67 65 60 57 62 63 63 65 66 64 64 65 66
15 18 23 27 34 39 46 55 52 47 47 58 67 73 77 77 77 75 72 67 64 62 57 56 59 61 63 64 65 64 66 66
13 16 24 28 32 36 42 51 54 50 48 52 62 66 67 71 75 74 74 72 70 67 64 64 62 64 65 66 67 66 66 66
14 14 15 23 30 34 38 42 50 51 50 51 56 64 67 68 70 72 74 73 73 73 70 67 67 67 66 65 63 63 63 67
20 19 16 15 20 30 34 38 42 50 49 49 52 60 65 67 68 70 71 71 70 69 70 70 70 68 66 65 63 62 65 74
29 29 25 21 19 18 28 34 38 44 50 50 50 55 62 65 66 68 70 71 72 70 69 68 70 70 67 66 66 68 73 76
36 36 34 31 27 23 22 27 36 40 45 50 50 52 57 61 65 65 67 69 69 68 69 69 68 67 66 66 68 72 77 84
37 36 36 36 34 30 27 21 27 34 40 45 48 50 53 56 60 62 63 64 66 67 68 69 69 68 67 68 73 77 84 88